Preview of NWS' New Version of Forecast
This preview is not operational and should not be used for support decisions.
Latest weather observations around

Chanute, Chanute Martin Johnson Airport (KCNU)

Using English Units (Switch to International System of Units)
Date/ Time (CDT) Wind (mph) Vis. (mi) Weather Sky Cond. Temp (°F) Rel. Humidity Wind Chill (°F) Heat Index (°F) Pressure Precip. (in)
Air Dwpt 6 hour Altimeter (inHg) Sea level (inHg) 1 hr 3 hr 6 hr
Max Min
Mar 26 14:52 E 3 10 Clear CLR 64 40     41%     30.34 30.33      
Mar 26 13:52 3 10 Clear CLR 62 40     44%     30.36 30.37      
Mar 26 12:52 3 10 Mostly Clear FEW043 60 41     49%     30.39 30.39     0
Mar 26 11:52 S 3 10 Clear CLR 58 40     51%     30.41 30.41      
Mar 26 10:52 Calm 10 Clear CLR 55 42     62%     30.42 30.42      
Mar 26 09:52 Calm 10 Clear CLR 50 43     77%     30.4 30.4   0  
Mar 26 08:52 N 3 5 Fog/Mist CLR 43 42     97% 41   30.4 30.4      
Mar 26 08:41 N 3 4 Fog/Mist CLR 42 41     96% 40   30.39        
Mar 26 08:31 Calm 2 Fog/Mist CLR 41 40     96%     30.39        
Mar 26 08:28 Calm 1.25 Fog/Mist CLR 40 40     100%     30.39        
Mar 26 07:52 NNW 5 0.25 Fog VV001 35 34     96% 31   30.38 30.39 0    
Mar 26 06:52 Calm 0.25 Fog VV002 34 34     100%     30.35 30.36      
Mar 26 06:29 Calm 0.25 Fog VV003 34 34     100%     30.35        
Mar 26 06:20 NW 3 0.5 Fog CLR 35 34     96% 32   30.35        
Mar 26 05:52 Calm 0.25 Fog VV002 34 34     100%     30.35 30.35      
Mar 26 04:52 NW 5 0.25 Fog VV003 36 35     96% 32   30.34 30.35      
Mar 26 03:52 Calm 0.25 Fog VV003 35 35     100%     30.34 30.35      
Mar 26 03:17 Calm 0.5 Fog VV003 37 37     100%     30.34        
Mar 26 03:10 NNW 3 1 Fog/Mist VV003 37 36     96% 35   30.35        
Mar 26 03:06 N 3 1.75 Fog/Mist SCT003 36 35     96% 33   30.34        
Mar 26 02:52 WNW 3 0.25 Fog VV002 37 36     96% 35   30.34 30.35      
Mar 26 02:48 Calm 0.25 Fog VV003 37 37     100%     30.34        
Mar 26 01:52 Calm 0.5 Fog CLR 36 36     100%     30.34 30.35      
Mar 26 01:40 Calm 0.75 Fog/Mist CLR 38 37     97%     30.34        
Mar 26 01:38 Calm 1.25 Fog/Mist CLR 38 37     97%     30.34        
Mar 26 01:31 Calm 2.5 Fog/Mist CLR 39 37     93%     30.35        
Mar 26 01:20 Calm 3 Fog/Mist CLR 37 36     96%     30.35        
Mar 26 01:13 NW 3 2 Fog/Mist CLR 37 36     96% 35   30.35        
Mar 26 01:11 NW 3 1.25 Fog/Mist CLR 37 37     100% 35   30.35        
Mar 26 00:52 Calm 0.75 Fog/Mist CLR 39 39     100%     30.34 30.35      
Mar 26 00:50 Calm 1 Fog/Mist CLR 39 39     100%     30.34        
Mar 26 00:48 Calm 1.75 Fog/Mist CLR 41 39     93%     30.34        
Mar 25 23:52 Calm 4 Fog/Mist CLR 41 40     96%     30.34 30.34      
Mar 25 22:52 Calm 10 Clear CLR 45 42     90%     30.34 30.33      
Mar 25 21:52 Calm 10 Mostly Cloudy BKN036 51 44     77%     30.33 30.32      
Mar 25 20:52 NNE 5 10 Cloudy OVC034 53 45     74%     30.31 30.31      
Mar 25 19:52 N 6 10 Cloudy OVC034 53 45     74%     30.29 30.28      
Mar 25 18:52 NNW 8 10 Cloudy SCT024 OVC031 54 45     72%     30.29 30.29      
Mar 25 18:28 N 7 10 Cloudy OVC030 55 45     69%     30.29        
Mar 25 18:12 N 7 10 Cloudy FEW022 OVC029 55 45     69%     30.29        
Mar 25 18:00 N 9 10 Cloudy FEW022 OVC030 54 45     72%     30.28        
Mar 25 17:52 N 10 10 Cloudy FEW022 OVC028 55 45     69%     30.28 30.28      
Mar 25 17:43 N 9 10 Cloudy FEW023 OVC028 55 45     69%     30.28        
Mar 25 17:30 N 11 10 Cloudy FEW024 OVC030 55 45     69%     30.28        
Mar 25 16:52 NNW 8 10 Cloudy OVC021 54 46     74%     30.28 30.27      
Mar 25 15:52 NNW 13 10 Cloudy BKN020 OVC029 54 46     74%     30.28 30.27      
Mar 25 14:52 NNW 9 10 Cloudy OVC020 54 46     74%     30.28 30.28      
Mar 25 13:52 NNW 9 10 Cloudy BKN021 OVC026 54 45     72%     30.28 30.27      
Mar 25 12:52 NNW 10 10 Cloudy BKN017 OVC030 54 46     74%     30.28 30.27      
Mar 25 12:34 NNW 9 10 Cloudy OVC016 53 46     77%     30.28        
Mar 25 12:11 N 9 10 Cloudy OVC014 53 46     77%     30.27        
Mar 25 11:52 N 9 10 Cloudy OVC015 53 46     77%     30.27 30.27      
Mar 25 11:08 N 10 10 Cloudy OVC015 53 46     77%     30.26        
Mar 25 10:52 N 14 10 Cloudy OVC014 53 46     77%     30.26 30.25      
Mar 25 09:52 N 11 10 Cloudy OVC012 51 46     83%     30.24 30.23      
Mar 25 08:52 N 10 9 Cloudy BKN011 OVC031 51 46     83%     30.21 30.2      
Mar 25 07:52 N 8 9 Cloudy OVC011 50 46     86%     30.19 30.18      
Mar 25 06:52 N 10 10 Clear   50 47     89%     30.16 30.16      
Mar 25 06:17 N 9 9 Cloudy BKN011 OVC032 51 47     86%     30.16        
Mar 25 05:52 N 14 9 Cloudy OVC031 51 47     86%     30.14 30.13      
Mar 25 04:52 N 10 10 Cloudy OVC032 51 47     86%     30.13 30.12      
Mar 25 04:12 NNW 10 10 Cloudy OVC031 51 47     86%     30.12        
Mar 25 03:52 N 7 10 Cloudy OVC028 51 47     86%     30.12 30.11      
Mar 25 02:59 N 9 10 Cloudy BKN029 OVC034 52 47     83%     30.13        
Mar 25 02:52 N 10 10 Cloudy OVC032 52 48     86%     30.13 30.11      
Mar 25 01:52 N 6 8 Cloudy FEW014 OVC035 51 48     89%     30.13 30.11      
Mar 25 00:52 NW 3 9 Clear CLR 48 46     93% 47   30.11 30.1      
Mar 24 23:52 NNW 7 10 Clear CLR 50 46     86%     30.1 30.09      
Mar 24 22:52 NW 9 10 Clear CLR 51 46     83%     30.08 30.07      
Mar 24 21:52 WNW 6 10 Clear CLR 50 44     80%     30.08 30.07      
Mar 24 20:52 WNW 7 10 Clear CLR 54 45     72%     30.05 30.04      
Mar 24 19:52 NNW 8 10 Mostly Clear FEW047 56 44     64%     30.03 30.02      
Mar 24 18:52 NNW 11 10 Cloudy OVC047 59 45     60%     30.03 30.01      
Mar 24 17:52 NW 13 10 Clear CLR 62 45     53%     30 29.99      
Mar 24 16:52 NNW 11 10 Mostly Clear FEW045 65 45     48%     29.99 29.98      
Mar 24 15:52 NNW 14 10 Clear CLR 67 47     49%     29.98 29.96      
Mar 24 14:52 WNW 11 10 Mostly Clear FEW043 68 47     47%     29.97 29.96      
Mar 24 13:52 WSW 10 10 Clear CLR 68 46     45%     29.97 29.95      
Mar 24 12:52 W 13 10 Clear CLR 66 47     50%     29.98 29.97      
Mar 24 11:52 W 11 10 Mostly Clear FEW027 63 48     58%     29.99 29.98      
Mar 24 10:52 W 8 10 Partly Cloudy SCT018 60 50     69%     29.99 29.98      
Mar 24 10:25 WNW 8 10 Partly Cloudy FEW015 SCT020 60 52     75%     29.99        
Mar 24 10:09 W 10 10 Mostly Cloudy SCT015 BKN021 59 52     78%     29.99        
Mar 24 09:52 WSW 7 10 Clear CLR 58 54     87%     29.99 29.98      
Mar 24 09:26 SW 5 4 Fog/Mist SCT016 55 54     96%     29.99        
Mar 24 09:06 SSW 6 3 Fog/Mist SCT005 OVC016 54 53     97%     29.99        
Mar 24 08:52 SSW 6 2.5 Fog/Mist SCT006 OVC016 53 53     100%     29.99 29.98      
Mar 24 08:35 SSW 6 2.5 Fog/Mist FEW004 OVC016 53 53     100%     29.98        
Mar 24 08:02 WSW 5 2 Fog/Mist BKN003 BKN010 OVC021 53 52     96%     29.98        
Mar 24 07:52 WSW 6 1.75 Fog/Mist BKN003 BKN010 OVC021 52 52     100%     29.98 29.98      
Mar 24 07:25 SW 6 1.75 Fog/Mist OVC003 52 52     100%     29.98        
Mar 24 07:10 SW 5 2.5 Fog/Mist BKN003 OVC009 52 52     100%     29.98        
Mar 24 06:52 SW 3 4 Fog/Mist OVC008 52 51     97%     29.98 29.97      
Mar 24 06:36 Calm 4 Fog/Mist BKN008 OVC018 52 51     97%     29.97        
Mar 24 06:13 S 5 5 Fog/Mist BKN010 OVC018 52 51     97%     29.97        
Mar 24 05:52 WSW 3 7 Cloudy OVC007 52 51     97%     29.98 29.97      
Mar 24 05:16 WNW 7 8 Cloudy BKN009 OVC020 52 51     97%     29.98        
Mar 24 05:07 NW 7 7 Cloudy SCT009 OVC020 51 50     96%     29.97        
Mar 24 04:52 SSE 5 8 Cloudy OVC020 51 50     96%     29.95 29.95      
Mar 24 03:52 S 8 10 Cloudy OVC023 52 50     93%     29.96 29.95      
Mar 24 02:52 SSE 9 10 Cloudy OVC015 51 49     92%     29.97 29.97      
Mar 24 01:52 S 7 10 Mostly Cloudy BKN028 50 48     93%     29.99 29.98      
Mar 24 00:52 SE 13 10 Mostly Clear FEW110 50 48     93%     29.98 29.97     0
Mar 23 23:52 SE 13 10 Cloudy OVC035 52 49     89%     30 30      
Mar 23 23:00 SE 11 7 Cloudy OVC030 52 50     93%     30.01        
Mar 23 22:52 SE 11 7 Cloudy BKN029 OVC037 52 50     93%     30.02 30.01      
Mar 23 22:44 SE 11 7 Mostly Cloudy BKN029 BKN037 52 50     93%     30.02        
Mar 23 21:52 SE 10 8 Cloudy FEW008 OVC030 52 51     97%     30.03 30.02   0  
Mar 23 21:31 SE 10 8 Cloudy SCT007 OVC029 52 51     97%     30.03        
Mar 23 20:52 SE 10 7 Cloudy OVC006 52 51     97%     30.04 30.03      
Mar 23 19:52 SE 13 4 Fog/Mist OVC006 52 51     97%     30.03 30.02 0    
Mar 23 19:07 SE 14 4 Fog/Mist BKN009 OVC020 52 51     97%     30.03        
Mar 23 18:52 SE 15 5 Fog/Mist FEW009 OVC021 53 50     89%     30.03 30.02     0
Mar 23 18:48 SE 16 5 Fog/Mist FEW009 OVC021 54 50     88%     30.03        
Mar 23 17:52 SE 14 10 Cloudy OVC028 55 49     80%     30.01 30.01      
Mar 23 16:52 SE 14 10 Cloudy OVC034 55 49     80%     30 29.99      
Mar 23 15:52 SSE 15 10 Partly Cloudy FEW011 SCT041 54 50     86%     30 29.99   0  
Mar 23 15:07 S 15 10 Mostly Cloudy SCT013 BKN110 53 50     89%     30.02        
Mar 23 14:52 SE 16 10 Cloudy SCT090 OVC110 53 50     89%     29.98 29.97 0    
Notice The following observation data may not be complete
May 15 02:24   10 Light Rain OVC110          %         0    
May 15 02:09   8 Thunderstorms and Rain SCT090 OVC110 64 64     100%     29.99   0    
May 14 20:13 E 10 10 Thunderstorms SCT017 68 66     93%     29.85   0    
May 14 19:52   0.75 Thunderstorms and Heavy Rain and Fog/Mist OVC021 68 66     93%     29.84 29.81 1    
May 13 14:52 S 18 10 Clear CLR 87 71     59%   93 29.94 29.9      
May 13 11:52 S 17 10 Clear CLR 84 70     63%   88 29.98 29.95      
May 11 10:52   10 Clear CLR 78 64     62%   79 29.8 29.77      
Jun 12 00:52 S 11 10 Clear CLR 75 65     71%   76 29.9 29.86      
Jun 11 15:52   10 Clear CLR 89 68     50%   93 29.84 29.8      
Jun 11 13:52   10 Clear CLR 89 69     52%   94 29.87 29.83      
Jun 11 11:52   10 Clear CLR 86 67     53%   89 29.87 29.83      
Jun 10 06:52 SSE 8 10 Mostly Clear FEW035 66 61     84%     29.85 29.82      
Jun 10 02:52 S 9 10 Clear CLR 67 58     73%     29.83 29.79      
Jun 08 16:52 SSE 8 10 Clear CLR 82 52     35%   81 29.96 29.93      
Jun 07 23:52 Calm 10 Clear CLR 58 51     78%     30.05 30.03